When you browse on this site, cookies collect data to enhance your experience and personalize the content and advertising you see.
Visit our Privacy Policy to learn more. By continuing to use the site, you agree to this use of cookies and data.

Hourly Weather Lubango

Today, 4 July, Saturday

Time Temperature Precipitation Wind Pressure Humidity
00:00 +11°C° 0 mm 3 mps 608 mmHg 39%
01:00 +11°C° 0 mm 3 mps 608 mmHg 42%
02:00 +10°C° 0 mm 3 mps 608 mmHg 43%
03:00 +10°C° 0 mm 3 mps 607 mmHg 44%
04:00 +8°C° 0 mm 4 mps 607 mmHg 45%
05:00 +8°C° 0 mm 4 mps 607 mmHg 46%
06:00 +8°C° 0 mm 4 mps 608 mmHg 47%
07:00 +9°C° 0 mm 3 mps 608 mmHg 47%
08:00 +12°C° 0 mm 4 mps 609 mmHg 41%
09:00 +15°C° 0 mm 4 mps 610 mmHg 34%
10:00 +19°C° 0 mm 5 mps 611 mmHg 28%
11:00 +20°C° 0 mm 4 mps 611 mmHg 25%
12:00 +22°C° 0 mm 4 mps 611 mmHg 22%
13:00 +25°C° 0 mm 3 mps 611 mmHg 19%
14:00 +25°C° 0 mm 3 mps 611 mmHg 18%
15:00 +25°C° 0 mm 2 mps 610 mmHg 16%
16:00 +24°C° 0 mm 2 mps 610 mmHg 15%
17:00 +21°C° 0 mm 2 mps 609 mmHg 19%
18:00 +18°C° 0 mm 2 mps 608 mmHg 23%
19:00 +15°C° 0 mm 2 mps 607 mmHg 27%
20:00 +14°C° 0 mm 2 mps 607 mmHg 29%
21:00 +13°C° 0 mm 3 mps 608 mmHg 30%
22:00 +12°C° 0 mm 3 mps 608 mmHg 32%
23:00 +12°C° 0 mm 3 mps 607 mmHg 32%

Tomorrow, 5 July, Sunday

Time Temperature Precipitation Wind Pressure Humidity
00:00 +11°C° 0 mm 3 mps 607 mmHg 33%
01:00 +11°C° 0 mm 3 mps 607 mmHg 34%
02:00 +10°C° 0 mm 4 mps 606 mmHg 35%
03:00 +10°C° 0 mm 4 mps 606 mmHg 36%
04:00 +8°C° 0 mm 4 mps 606 mmHg 36%
05:00 +8°C° 0 mm 4 mps 606 mmHg 37%
06:00 +8°C° 0 mm 4 mps 607 mmHg 37%
07:00 +8°C° 0 mm 4 mps 607 mmHg 37%
08:00 +12°C° 0 mm 5 mps 608 mmHg 33%
09:00 +15°C° 0 mm 5 mps 609 mmHg 29%
10:00 +19°C° 0 mm 6 mps 611 mmHg 25%
11:00 +21°C° 0 mm 6 mps 611 mmHg 22%
12:00 +22°C° 0 mm 5 mps 611 mmHg 20%
13:00 +25°C° 0 mm 4 mps 611 mmHg 17%
14:00 +25°C° 0 mm 4 mps 610 mmHg 17%
15:00 +25°C° 0 mm 3 mps 610 mmHg 16%
16:00 +25°C° 0 mm 2 mps 610 mmHg 15%
17:00 +21°C° 0 mm 2 mps 609 mmHg 20%
18:00 +18°C° 0 mm 2 mps 608 mmHg 24%
19:00 +15°C° 0 mm 2 mps 607 mmHg 29%
20:00 +14°C° 0 mm 2 mps 608 mmHg 30%
21:00 +14°C° 0 mm 2 mps 608 mmHg 30%
22:00 +13°C° 0 mm 2 mps 608 mmHg 31%
23:00 +13°C° 0 mm 2 mps 608 mmHg 32%

Day after tomorrow, 6 July, Monday

Time Temperature Precipitation Wind Pressure Humidity
00:00 +13°C° 0 mm 2 mps 608 mmHg 33%
01:00 +12°C° 0 mm 2 mps 607 mmHg 33%
02:00 +12°C° 0 mm 2 mps 607 mmHg 34%
03:00 +10°C° 0 mm 2 mps 607 mmHg 35%
04:00 +10°C° 0 mm 2 mps 607 mmHg 36%
05:00 +10°C° 0 mm 2 mps 607 mmHg 37%
06:00 +10°C° 0 mm 2 mps 607 mmHg 37%
07:00 +10°C° 0 mm 3 mps 607 mmHg 38%
08:00 +13°C° 0 mm 3 mps 609 mmHg 32%
09:00 +18°C° 0 mm 4 mps 610 mmHg 25%
10:00 +21°C° 0 mm 4 mps 611 mmHg 19%
11:00 +22°C° 0 mm 4 mps 611 mmHg 18%
12:00 +24°C° 0 mm 3 mps 611 mmHg 16%
13:00 +26°C° 0 mm 2 mps 611 mmHg 14%
14:00 +26°C° 0 mm 2 mps 611 mmHg 14%
15:00 +26°C° 0 mm 2 mps 610 mmHg 13%
16:00 +26°C° 0 mm 2 mps 610 mmHg 13%
17:00 +22°C° 0 mm 1 mps 609 mmHg 17%
18:00 +19°C° 0 mm 1 mps 608 mmHg 22%
19:00 +14°C° 0 mm 1 mps 607 mmHg 26%
20:00 +14°C° 0 mm 1 mps 607 mmHg 27%
21:00 +13°C° 0 mm 2 mps 608 mmHg 28%
22:00 +12°C° 0 mm 2 mps 608 mmHg 29%
23:00 +12°C° 0 mm 2 mps 608 mmHg 31%

7 July, Tuesday

Time Temperature Precipitation Wind Pressure Humidity
00:00 +12°C° 0 mm 2 mps 608 mmHg 32%
01:00 +12°C° 0 mm 1 mps 608 mmHg 33%
02:00 +12°C° 0 mm 1 mps 607 mmHg 33%
03:00 +12°C° 0 mm 1 mps 607 mmHg 33%
04:00 +11°C° 0 mm 1 mps 607 mmHg 33%
05:00 +10°C° 0 mm 2 mps 607 mmHg 33%
06:00 +10°C° 0 mm 2 mps 607 mmHg 32%
07:00 +12°C° 0 mm 2 mps 608 mmHg 31%
08:00 +14°C° 0 mm 3 mps 609 mmHg 26%
09:00 +18°C° 0 mm 3 mps 610 mmHg 21%
10:00 +22°C° 0 mm 4 mps 611 mmHg 15%
11:00 +24°C° 0 mm 3 mps 611 mmHg 14%
12:00 +25°C° 0 mm 3 mps 611 mmHg 13%
13:00 +26°C° 0 mm 3 mps 610 mmHg 11%
14:00 +25°C° 0 mm 3 mps 610 mmHg 11%
15:00 +25°C° 0 mm 2 mps 609 mmHg 11%
16:00 +25°C° 0 mm 2 mps 609 mmHg 10%
17:00 +21°C° 0 mm 2 mps 608 mmHg 13%
18:00 +17°C° 0 mm 2 mps 607 mmHg 16%
19:00 +14°C° 0 mm 1 mps 606 mmHg 19%
20:00 +14°C° 0 mm 2 mps 606 mmHg 19%
21:00 +14°C° 0 mm 2 mps 606 mmHg 19%
22:00 +13°C° 0 mm 2 mps 607 mmHg 19%
23:00 +13°C° 0 mm 2 mps 606 mmHg 18%

8 July, Wednesday

Time Temperature Precipitation Wind Pressure Humidity
00:00 +12°C° 0 mm 2 mps 606 mmHg 18%
01:00 +12°C° 0 mm 1 mps 606 mmHg 18%
02:00 +12°C° 0 mm 1 mps 606 mmHg 19%
03:00 +11°C° 0 mm 1 mps 606 mmHg 19%
04:00 +10°C° 0 mm 2 mps 605 mmHg 20%
05:00 +10°C° 0 mm 2 mps 606 mmHg 20%
06:00 +10°C° 0 mm 2 mps 606 mmHg 21%
07:00 +10°C° 0 mm 2 mps 607 mmHg 22%
08:00 +15°C° 0 mm 2 mps 608 mmHg 19%
09:00 +19°C° 0 mm 3 mps 610 mmHg 16%
10:00 +22°C° 0 mm 3 mps 611 mmHg 13%
11:00 +24°C° 0 mm 3 mps 611 mmHg 12%
12:00 +26°C° 0 mm 3 mps 611 mmHg 11%
13:00 +27°C° 0 mm 2 mps 611 mmHg 10%
14:00 +27°C° 0 mm 2 mps 610 mmHg 10%
15:00 +26°C° 0 mm 2 mps 610 mmHg 10%
16:00 +26°C° 0 mm 2 mps 610 mmHg 10%
17:00 +21°C° 0 mm 2 mps 609 mmHg 18%
18:00 +18°C° 0 mm 1 mps 608 mmHg 26%
19:00 +13°C° 0 mm 1 mps 607 mmHg 35%
20:00 +13°C° 0 mm 1 mps 607 mmHg 34%
21:00 +13°C° 0 mm 1 mps 607 mmHg 34%
22:00 +13°C° 0 mm 1 mps 608 mmHg 33%
23:00 +13°C° 0 mm 1 mps 608 mmHg 31%

9 July, Thursday

Time Temperature Precipitation Wind Pressure Humidity
00:00 +13°C° 0 mm 1 mps 608 mmHg 29%
01:00 +13°C° 0 mm 1 mps 608 mmHg 26%
02:00 +13°C° 0 mm 1 mps 607 mmHg 26%
03:00 +12°C° 0 mm 1 mps 607 mmHg 25%
04:00 +12°C° 0 mm 1 mps 607 mmHg 25%
05:00 +12°C° 0 mm 1 mps 607 mmHg 24%
06:00 +12°C° 0 mm 1 mps 607 mmHg 23%
07:00 +12°C° 0 mm 1 mps 607 mmHg 22%
08:00 +16°C° 0 mm 1 mps 609 mmHg 19%
09:00 +21°C° 0 mm 1 mps 611 mmHg 15%
10:00 +25°C° 0 mm 1 mps 612 mmHg 12%
11:00 +26°C° 0 mm 2 mps 612 mmHg 11%
12:00 +27°C° 0 mm 2 mps 612 mmHg 11%
13:00 +27°C° 0 mm 2 mps 611 mmHg 10%
14:00 +27°C° 0 mm 2 mps 611 mmHg 11%
15:00 +26°C° 0 mm 2 mps 610 mmHg 12%
16:00 +26°C° 0 mm 2 mps 610 mmHg 13%
17:00 +21°C° 0 mm 2 mps 609 mmHg 21%
18:00 +18°C° 0 mm 2 mps 608 mmHg 28%
19:00 +14°C° 0 mm 2 mps 607 mmHg 36%
20:00 +14°C° 0 mm 1 mps 607 mmHg 35%
21:00 +14°C° 0 mm 1 mps 607 mmHg 33%
22:00 +14°C° 0 mm 1 mps 608 mmHg 32%
23:00 +14°C° 0 mm 1 mps 608 mmHg 31%
Show more